Weather History for KOLV - September, 2013

Change the Weather History Date:

Thursday, September 26, 2013

  Actual Average (KMEM) Record (KMEM)
Temperature  
Mean Temperature 73 °F 71 °F  
Max Temperature 84 °F 81 °F 95 °F (1954)
Min Temperature 62 °F 61 °F 46 °F (1940)
Degree Days  
Heating Degree Days 0 1  
Month to date heating degree days 6  
Since 1 July heating degree days 6  
Cooling Degree Days 8 7  
Month to date cooling degree days 289  
Year to date cooling degree days 2124  
Growing Degree Days 23 (Base 50)    
Moisture  
Dew Point 68 °F    
Average Humidity 88    
Maximum Humidity 100    
Minimum Humidity 51    
Precipitation  
Precipitation 0.00 in 0.12 in 3.03 in (2002)
Month to date precipitation 2.61  
Year to date precipitation 37.99  
Snow  
Snow 0.00 in 0.00 in 0.00 in (2002)
Month to date snowfall 0.0  
Since 1 July snowfall 0.0  
Since 1 September snowfall 0.0  
Snow Depth -    
Sea Level Pressure  
Sea Level Pressure 29.92 in    
Wind  
Wind Speed 1 mph (ENE)    
Max Wind Speed 7 mph    
Max Gust Speed -    
Visibility 8 miles    
Events      
T = Trace of Precipitation, MM = Missing Value Source: NWS Daily Summary

Daily Weather History Graph

Daily Weather History Graph

Search for Another Location

Airport or City:

Trip Planner

Search our weather history database for the weather conditions in past years. The results will help you decide how hot, cold, wet, or windy it might be!

Date:

Astronomy

Sep. 26, 2013 Rise Set
Actual Time 6:50 AM CDT 6:49 PM CDT
Civil Twilight 6:25 AM CDT 7:15 PM CDT
Nautical Twilight 5:55 AM CDT 7:44 PM CDT
Astronomical Twilight 5:25 AM CDT 8:13 PM CDT
Moon 11:59 PM CDT (9/26) 1:30 PM CDT (9/26)
Length of Visible Light 12h 49m
Length of Day
11h 59m
Waning Gibbous, 54% of the Moon is Illuminated
Sep 26
Waning Gibbous
Sep 26
Last Quarter
Oct 4
New
Oct 11
First Quarter
Oct 18
Full

Hourly Weather History & Observations

Time (CDT) Temp. Heat Index Dew Point Humidity Pressure Visibility Wind Dir Wind Speed Gust Speed Precip Events Conditions
12:15 AM 66.2 °F - 66.2 °F 100% 29.85 in 10.0 mi Calm Calm - 0.00 in   Clear
12:35 AM 66.2 °F - 66.2 °F 100% 29.85 in 10.0 mi Calm Calm - 0.00 in   Clear
12:55 AM 66.2 °F - 66.2 °F 100% 29.85 in 10.0 mi Calm Calm - 0.00 in   Clear
1:15 AM 66.2 °F - 66.2 °F 100% 29.85 in 8.0 mi Calm Calm - 0.00 in   Clear
1:35 AM 66.2 °F - 66.2 °F 100% 29.85 in 8.0 mi Calm Calm - 0.00 in   Clear
1:55 AM 64.4 °F - 64.4 °F 100% 29.85 in 7.0 mi Calm Calm - 0.00 in   Clear
2:15 AM 64.4 °F - 64.4 °F 100% 29.85 in 8.0 mi Calm Calm - 0.00 in   Clear
2:35 AM 64.4 °F - - N/A% 29.85 in 0.8 mi Calm Calm - 0.00 in   Overcast
2:55 AM 66.2 °F - - N/A% 29.85 in 10.0 mi Calm Calm - 0.00 in   Mostly Cloudy
3:15 AM 66.2 °F - - N/A% 29.85 in 7.0 mi Calm Calm - 0.00 in   Partly Cloudy
3:35 AM 64.4 °F - - N/A% 29.85 in 5.0 mi Calm Calm - 0.00 in   Partly Cloudy
3:55 AM 64.4 °F - - N/A% 29.86 in 5.0 mi Calm Calm - 0.00 in   Partly Cloudy
4:15 AM 64.4 °F - - N/A% 29.86 in 0.2 mi Calm Calm - 0.00 in   Overcast
4:35 AM 64.4 °F - - N/A% 29.87 in 0.2 mi Calm Calm - 0.00 in   Overcast
4:55 AM 64.4 °F - - N/A% 29.88 in 0.2 mi Calm Calm - 0.00 in   Mostly Cloudy
5:15 AM 62.6 °F - - N/A% 29.88 in 5.0 mi Calm Calm - 0.00 in   Clear
5:35 AM 62.6 °F - - N/A% 29.89 in 5.0 mi Calm Calm - 0.00 in   Clear
5:55 AM 64.4 °F - - N/A% 29.90 in 6.0 mi Calm Calm - 0.00 in   Clear
6:15 AM 64.4 °F - - N/A% 29.91 in 6.0 mi NE 3.5 mph - 0.00 in   Clear
6:35 AM 64.4 °F - - N/A% 29.92 in 7.0 mi Calm Calm - 0.00 in   Clear
6:50 AM 64.4 °F - 64.4 °F 100% 29.93 in 5.0 mi Calm Calm - N/A   Clear
7:50 AM 64.4 °F - 64.4 °F 100% 29.95 in 7.0 mi Calm Calm - N/A   Clear
8:50 AM 68.0 °F - 68.0 °F 100% 29.96 in 9.0 mi Calm Calm - N/A   Clear
9:50 AM 73.4 °F - 71.6 °F 94% 29.98 in 10.0 mi Calm Calm - N/A   Clear
10:50 AM 77.0 °F - 73.4 °F 89% 29.98 in 10.0 mi Calm Calm - N/A   Scattered Clouds
11:50 AM 80.6 °F 84.6 °F 71.6 °F 74% 29.97 in 10.0 mi East 5.8 mph - N/A   Mostly Cloudy
12:50 PM 82.4 °F 86.3 °F 69.8 °F 66% 29.96 in 10.0 mi ENE 4.6 mph - N/A   Mostly Cloudy
1:50 PM 80.6 °F 83.2 °F 68.0 °F 65% 29.94 in 10.0 mi NNE 4.6 mph - N/A   Mostly Cloudy
2:50 PM 84.2 °F 85.6 °F 64.4 °F 51% 29.93 in 10.0 mi East 5.8 mph - N/A   Mostly Cloudy
3:50 PM 84.2 °F 85.6 °F 64.4 °F 51% 29.93 in 10.0 mi NNE 4.6 mph - N/A   Mostly Cloudy
4:50 PM 84.2 °F 85.6 °F 64.4 °F 51% 29.93 in 10.0 mi ENE 5.8 mph - N/A   Mostly Cloudy
5:50 PM 82.4 °F 83.9 °F 64.4 °F 54% 29.93 in 10.0 mi ENE 5.8 mph - N/A   Mostly Cloudy
6:50 PM 78.8 °F - 68.0 °F 69% 29.95 in 10.0 mi East 6.9 mph - N/A   Scattered Clouds
7:50 PM 75.2 °F - 69.8 °F 83% 29.96 in 10.0 mi East 5.8 mph - N/A   Scattered Clouds
8:55 PM 71.6 °F - 69.8 °F 94% 29.98 in 10.0 mi Calm Calm - 0.00 in   Clear
9:15 PM 71.6 °F - 69.8 °F 94% 29.98 in 10.0 mi Calm Calm - 0.00 in   Clear
9:35 PM 71.6 °F - 69.8 °F 94% 29.99 in 10.0 mi Calm Calm - 0.00 in   Clear
9:55 PM 69.8 °F - 69.8 °F 100% 29.99 in 10.0 mi Calm Calm - 0.00 in   Clear
10:15 PM 69.8 °F - 69.8 °F 100% 30.00 in 9.0 mi Calm Calm - 0.00 in   Clear
10:35 PM 68.0 °F - 68.0 °F 100% 30.00 in 10.0 mi ESE 3.5 mph - 0.00 in   Clear
10:55 PM 68.0 °F - 68.0 °F 100% 30.00 in 9.0 mi Calm Calm - 0.00 in   Clear
11:15 PM 68.0 °F - 68.0 °F 100% 30.00 in 10.0 mi ESE 3.5 mph - 0.00 in   Clear
11:35 PM 68.0 °F - 68.0 °F 100% 30.00 in 8.0 mi Calm Calm - 0.00 in   Clear
11:55 PM 66.2 °F - 66.2 °F 100% 30.00 in 10.0 mi Calm Calm - 0.00 in   Clear